Location: Berg
(47.2344°N, 9.5296°E)
Time: 15:24:57
(UTC+00:00)

Cosmos 44 - Pass Details

Date: 10 May 2021
Orbit: 571 x 791 km, 65.1° (Epoch: 11 June)

Event Time Altitude Azimuth Distance (km) Brightness Sun altitude
Rises 19:23:38 0° 321° (NW) 3,289 8.6 -6.4°
Reaches altitude 10° 19:27:12 10° 344° (NNW) 2,365 6.9 -6.9°
Maximum altitude 19:30:16 15° 19° (NNE) 2,031 5.9 -7.3°
Drops below altitude 10° 19:33:20 10° 53° (NE) 2,348 5.9 -7.7°
Sets 19:36:50 0° 77° (ENE) 3,250 6.4 -8.2°
